User: anonymous   Login
Location: Cactus School
(34.5700°N, 118.0931°W)
Time: 10:21:36
(UTC-07:00)
Language:

ITUPSAT 1 - Orbit

View from above orbital plane
View from above orbital plane
View from above satellite
View from above satellite

Ground track
Ground track

The orbit data is extracted from the following two-line orbital elements,

1 35935U 09051E   24146.60069745  .00001703  00000-0  38329-3 0  9993
2 35935  98.4763  30.1948 0008984  53.1952 307.0069 14.57719942778975
Epoch (UTC): 25 May 2024 14:25:00
Eccentricity: 0.0008984
inclination: 98.4763°
perigee height: 694 km
apogee height: 707 km
right ascension of ascending node: 30.1948°
argument of perigee: 53.1952°
revolutions per day: 14.57719942
mean anomaly at epoch: 307.0069°
orbit number at epoch: 77897

The dashed part of the orbit path shows where the satellite is in the earth's shadow,  

DLR